YAM-14

导读

YAM-14(NORAD编号69008)是隶属于YamSat卫星项目的小型立方体卫星。该卫星属于10厘米标准立方星结构,重量仅约850克,设计寿命为2个月,任务预设寿命为1个月,运行轨道高度预期在600至650公里区间。 它搭载微型光谱仪作为核心科学载荷,主要用于观测可见太阳光谱在地球大气层中的散射特征,开展大气成分构成分析研究,属于低成本空间科学试验卫星,为小型化大气探测技术验证提供了实践平台,是立方星开展前沿空间科学研究的典型案例。

基本信息
目录编号:
69008
目录名称:
YAM-14
国际标识:
2026-100AE
轨道中心:
EARTH
卫星名称:
YAM-14
卫星全名:
YAM-14
卫星状态:
在轨 (已飞行134 天)
发射日期:
2026-05-03 UTC
国别 :
美国 (US)
星等 :
--
该卫星已列入 空间交会检测服务 Space Conjunction Data Service (SCDS) ,当前飞行风险评估等级: 无高风险
轨道信息
数据来源 国际轨道数据
星历时间: 2026-09-14T07:29:27+0800
7小时前
查看轨道信息
半长轴: 6974.815km
偏心率: 0.0001774
轨道倾角: 97.776°
近地点辐角 67.678°
升交点赤经 152.870°
平近点角 292.463°
近地点: 595.44km
远地点: 597.916km
周期: 96.618分钟
每日圈数: 14.904031
详细信息
使用方式:
暂无
2D轨道图
3D轨道图
轨道高度分析图
轨道倾角分析图
轨道综合分析图
查看轨道综合分析图
与全量物体交会距离演化趋势 订阅飞行安全评估服务
与全量物体交会风险概率演化趋势 订阅飞行安全评估服务